Back to catalog

ONEWEB-0706

AliveCommunicationsPO
NORAD 61611·PAYLOAD·🇬🇧 United Kingdom

Launched Oct 20, 2024 from Vandenberg Space Force Base

Loading…

Next Passes (next 24 hours)

TLE

FreshSource: CelesTrak SupGP

Epoch: Sep 14, 2026, 15:35 UTC

1 61611C 24188T   26257.64979583  .00002105  00000+0  60379-2 0  2572
2 61611  87.8920  18.4550 0001148 102.8656   7.0942 13.10375037    19

Track ONEWEB-0706 in real time with AllMySat

Download on the App Store